Beverly, MA

11:56 PM EST on January 21, 2018 (GMT -0500)
Beverly Municipal

Weather History for KBVY - June, 2013

Change the Weather History Date:

Tuesday, June 25, 2013

  Actual Average Record
Temperature  
Mean Temperature 80 °F -  
Max Temperature 90 °F 77 °F 100 °F (1980)
Min Temperature 69 °F 57 °F 51 °F (2002)
Cooling Degree Days 14    
Growing Degree Days 30 (Base 50)    
Moisture  
Dew Point 67 °F    
Average Humidity 68    
Maximum Humidity 93    
Minimum Humidity 48    
Precipitation  
Precipitation 0.00 in - - ()
Sea Level Pressure  
Sea Level Pressure 29.80 in    
Wind  
Wind Speed 6 mph (West)    
Max Wind Speed 14 mph    
Max Gust Speed 22 mph    
Visibility 10 miles    
Events      
Averages and records for this station are not official NWS values.
T = Trace of Precipitation, MM = Missing Value Source: NWS Daily Summary

Daily Weather History Graph

Daily Weather History Graph

Search for Another Location

Airport or City:

Trip Planner

Search our weather history database for the weather conditions in past years. The results will help you decide how hot, cold, wet, or windy it might be!

Date:

Astronomy

Jun. 25, 2013 Rise Set
Actual Time 5:07 AM EDT 8:25 PM EDT
Civil Twilight 4:32 AM EDT 9:00 PM EDT
Nautical Twilight 3:47 AM EDT 9:45 PM EDT
Astronomical Twilight 2:51 AM EDT 10:41 PM EDT
Moon 10:04 PM EDT (6/25) 7:47 AM EDT (6/25)
Length of Visible Light 16h 27m
Length of Day
15h 18m
Waning Gibbous, 93% of the Moon is Illuminated
Jun 25
Waning Gibbous
Jun 30
Last Quarter
Jul 8
New
Jul 15
First Quarter
Jul 22
Full

Hourly Weather History & Observations

Time (EDT) Temp. Heat Index Dew Point Humidity Pressure Visibility Wind Dir Wind Speed Gust Speed Precip Events Conditions
12:53 AM 70.0 °F - 68.0 °F 93% 29.88 in 9.0 mi Calm Calm - N/A   Clear
1:53 AM 70.0 °F - 66.9 °F 90% 29.88 in 10.0 mi West 5.8 mph - N/A   Partly Cloudy
2:53 AM 69.1 °F - 66.0 °F 90% 29.86 in 10.0 mi WSW 6.9 mph - N/A   Clear
3:53 AM 69.1 °F - 66.0 °F 90% 29.86 in 10.0 mi WSW 5.8 mph - N/A   Clear
4:53 AM 69.1 °F - 64.9 °F 87% 29.87 in 10.0 mi West 8.1 mph - N/A   Clear
5:53 AM 70.0 °F - 64.9 °F 84% 29.87 in 10.0 mi West 5.8 mph - N/A   Clear
6:53 AM 71.1 °F - 64.9 °F 81% 29.87 in 10.0 mi West 6.9 mph - N/A   Clear
7:53 AM 73.9 °F - 66.0 °F 76% 29.86 in 10.0 mi West 6.9 mph - N/A   Clear
8:53 AM 78.1 °F - 66.0 °F 66% 29.86 in 10.0 mi West 9.2 mph - N/A   Clear
9:53 AM 81.0 °F 83.3 °F 66.9 °F 62% 29.85 in 10.0 mi West 10.4 mph - N/A   Clear
10:53 AM 84.0 °F 87.0 °F 68.0 °F 58% 29.85 in 10.0 mi West 8.1 mph - N/A   Clear
11:53 AM 86.0 °F 90.1 °F 69.1 °F 57% 29.84 in 10.0 mi West 9.2 mph - N/A   Scattered Clouds
12:53 PM 87.1 °F 90.6 °F 68.0 °F 53% 29.83 in 10.0 mi West 9.2 mph - N/A   Scattered Clouds
1:53 PM 88.0 °F 91.4 °F 68.0 °F 51% 29.80 in 10.0 mi West 8.1 mph - N/A   Scattered Clouds
2:53 PM 90.0 °F 94.5 °F 69.1 °F 50% 29.77 in 10.0 mi WSW 10.4 mph - N/A   Scattered Clouds
3:53 PM 88.0 °F 90.3 °F 66.0 °F 48% 29.75 in 10.0 mi West 13.8 mph 19.6 mph N/A   Scattered Clouds
4:53 PM 88.0 °F 90.7 °F 66.9 °F 49% 29.73 in 10.0 mi SW 9.2 mph - N/A   Scattered Clouds
5:53 PM 86.0 °F 88.2 °F 66.0 °F 51% 29.73 in 10.0 mi SW 9.2 mph - N/A   Scattered Clouds
6:53 PM 84.9 °F 87.1 °F 66.0 °F 53% 29.71 in 10.0 mi SW 9.2 mph - N/A   Mostly Cloudy
7:53 PM 84.9 °F 87.6 °F 66.9 °F 55% 29.70 in 10.0 mi SSW 11.5 mph 21.9 mph N/A   Mostly Cloudy
8:53 PM 82.9 °F 85.4 °F 66.9 °F 58% 29.70 in 10.0 mi SSW 11.5 mph - N/A   Clear
9:53 PM 77.0 °F - 68.0 °F 74% 29.73 in 10.0 mi North 8.1 mph 20.7 mph N/A   Scattered Clouds
10:53 PM 73.9 °F - 68.0 °F 82% 29.73 in 10.0 mi North 4.6 mph - N/A   Overcast
11:53 PM 73.0 °F - 68.0 °F 84% 29.73 in 10.0 mi Calm Calm - N/A   Mostly Cloudy